WetterOnline ( http://www.wetteronline.de )

Wetter aktuell Nesselwang

Aktuelles Wetter: Kempten (705m)

6-stündlich | Neueste Meldungen
Ortszeit Temperatur Wetter
Fr, 22.02. 19:00 4.0° C bedeckt
Fr, 22.02. 13:00 5.3° C Regen
Fr, 22.02. 7:00 4.7° C Regen
Fr, 22.02. 1:00 4.5° C bedeckt
Do, 21.02. 19:00 8.4° C bewölkt
Do, 21.02. 13:00 10.7° C wolkig
Do, 21.02. 7:00 -1.1° C leicht bewölkt
Do, 21.02. 1:00 1.3° C bewölkt
Ortszeit Temperatur Wetter
Fr, 22.02. 22:00 1.3° C fast wolkenlos
Fr, 22.02. 21:50 1.3° C fast wolkenlos
Fr, 22.02. 21:40 2.3° C wolkenlos
Fr, 22.02. 21:30 2.0° C fast wolkenlos
Fr, 22.02. 21:20 2.0° C fast wolkenlos
Fr, 22.02. 21:10 1.6° C leicht bewölkt
Fr, 22.02. 21:00 2.3° C leicht bewölkt
Fr, 22.02. 20:30 2.8° C leicht bewölkt
Fr, 22.02. 20:00 3.3° C bewölkt
Fr, 22.02. 19:30 3.8° C bedeckt
Fr, 22.02. 19:00 4.0° C bedeckt
Ortszeit Relative Feuchte Sichtweite
Fr, 22.02. 19:00 94% 3.7 km
Fr, 22.02. 13:00 94% 2.0 km
Fr, 22.02. 7:00 88% 7 km
Fr, 22.02. 1:00 74% 23 km
Do, 21.02. 19:00 53% 28 km
Do, 21.02. 13:00 45% 9 km
Do, 21.02. 7:00 87% 19 km
Do, 21.02. 1:00 82% 15 km
Ortszeit Relative Feuchte Sichtweite
Fr, 22.02. 22:00 94% 3.3 km
Fr, 22.02. 21:50 94% -
Fr, 22.02. 21:40 96% -
Fr, 22.02. 21:30 96% 3.7 km
Fr, 22.02. 21:20 96% -
Fr, 22.02. 21:10 95% -
Fr, 22.02. 21:00 96% 3.0 km
Fr, 22.02. 20:30 95% 3.6 km
Fr, 22.02. 20:00 94% 3.6 km
Fr, 22.02. 19:30 93% 3.4 km
Fr, 22.02. 19:00 94% 3.7 km
Ortszeit Niederschlagsmenge Niederschlagsart
Fr, 22.02. 19:00 2 l/m2 in 12 Std. -
Fr, 22.02. 13:00 2 l/m2 in 6 Std. Regen
Fr, 22.02. 7:00 1 l/m2 in 12 Std. Regen
Fr, 22.02. 1:00 0.0 l/m2 in 6 Std. -
Do, 21.02. 19:00 0.0 l/m2 in 12 Std. -
Do, 21.02. 13:00 0.0 l/m2 in 6 Std. -
Do, 21.02. 7:00 0.0 l/m2 in 12 Std. -
Do, 21.02. 1:00 0.0 l/m2 in 6 Std. -
Ortszeit Niederschlagsmenge Niederschlagsart
Fr, 22.02. 22:00 0.0 l/m2 in 1 Std. -
Fr, 22.02. 21:50 keine Meldung -
Fr, 22.02. 21:40 keine Meldung -
Fr, 22.02. 21:30 0.0 l/m2 in 1 Std. -
Fr, 22.02. 21:20 keine Meldung -
Fr, 22.02. 21:10 keine Meldung -
Fr, 22.02. 21:00 0.0 l/m2 in 1 Std. -
Fr, 22.02. 20:30 0.0 l/m2 in 1 Std. -
Fr, 22.02. 20:00 0.0 l/m2 in 1 Std. -
Fr, 22.02. 19:30 0.0 l/m2 in 1 Std. -
Fr, 22.02. 19:00 0.0 l/m2 in 1 Std. -
Ortszeit Stärke Spitze Richtung
km/h Bft. km/h Grad Sektor
Fr, 22.02. 19:00 4 1 11 90° O
Fr, 22.02. 13:00 4 1 18 110° O
Fr, 22.02. 7:00 7 2 18 210° SW
Fr, 22.02. 1:00 4 1 11 140° SO
Do, 21.02. 19:00 7 2 25 220° SW
Do, 21.02. 13:00 4 1 14 150° SO
Do, 21.02. 7:00 6 1 13 130° SO
Do, 21.02. 1:00 7 2 11 120° SO
Ortszeit Stärke Spitze Richtung
km/h Bft. km/h Grad Sektor
Fr, 22.02. 22:00 4 1 7 10° N
Fr, 22.02. 21:50 4 1 - 10° N
Fr, 22.02. 21:40 6 1 - 350° N
Fr, 22.02. 21:30 4 1 4 20° N
Fr, 22.02. 21:20 4 1 - 20° N
Fr, 22.02. 21:10 2 1 - 100° O
Fr, 22.02. 21:00 4 1 11 120° SO
Fr, 22.02. 20:30 4 1 11 70° O
Fr, 22.02. 20:00 4 1 7 100° O
Fr, 22.02. 19:30 2 1 6 90° O
Fr, 22.02. 19:00 4 1 7 90° O
Ortszeit Untergrenze Bedeckung Gattung
total tief tief mittel hoch
Fr, 22.02. 19:00 810 m 8/8 8/8 - - -
Fr, 22.02. 13:00 150 m 8/8 8/8 - - -
Fr, 22.02. 7:00 750 m 8/8 8/8 - - -
Fr, 22.02. 1:00 1800 m 8/8 8/8 - - -
Do, 21.02. 19:00 1800 m 8/8 7/8 - - -
Do, 21.02. 13:00 5400 m 8/8 8/8 - - -
Do, 21.02. 7:00 10500 m 6/8 0/8 - - -
Do, 21.02. 1:00 3300 m 8/8 4/8 - - -
Ortszeit Bedeckungsgrad in Achtel und Wolkenuntergrenze
Fr, 22.02. 22:00 1(540m)
Fr, 22.02. 21:50 1(540m)
Fr, 22.02. 21:40 keine Wolken
Fr, 22.02. 21:30 1(480m)
Fr, 22.02. 21:20 1(480m)
Fr, 22.02. 21:10 1(510m) 2(780m)
Fr, 22.02. 21:00 2(510m) 4(1500m) 4(1500m)
Fr, 22.02. 20:30 2(540m) 3(1500m)
Fr, 22.02. 20:00 1(600m) 6(990m) 7(1500m)
Fr, 22.02. 19:30 3(660m) 8(960m) 8(1500m)
Fr, 22.02. 19:00 3(810m) 6(1020m) 8(1500m)
Ortszeit Luftdruck NN (hPa) Tendenz (hPa in 3 Std.)
Fr, 22.02. 19:00 1037 + 1,0
Fr, 22.02. 13:00 1035 + 0,8
Fr, 22.02. 7:00 1033 + 0,8
Fr, 22.02. 1:00 1032 + 0,5
Do, 21.02. 19:00 1029 + 0,8
Do, 21.02. 13:00 1028 - 0,3
Do, 21.02. 7:00 1032 + 0,5
Do, 21.02. 1:00 1030 + 0,5
Ortszeit Luftdruck NN (hPa) Tendenz (hPa in 3 Std.)
Fr, 22.02. 22:00 1039 + 0,5
Fr, 22.02. 21:50 1039 keine Meldung
Fr, 22.02. 21:40 1038 keine Meldung
Fr, 22.02. 21:30 1038 + 0,6
Fr, 22.02. 21:20 1038 keine Meldung
Fr, 22.02. 21:10 1038 keine Meldung
Fr, 22.02. 21:00 1038 + 0,8
Fr, 22.02. 20:30 1037 + 0,7
Fr, 22.02. 20:00 1037 + 0,9
Fr, 22.02. 19:30 1037 + 0,9
Fr, 22.02. 19:00 1037 + 1,0
Ortszeit Schneehöhe (cm)
Fr, 22.02. 19:00 0
Fr, 22.02. 13:00 0
Fr, 22.02. 7:00 0
Fr, 22.02. 1:00 0
Do, 21.02. 19:00 0
Do, 21.02. 13:00 5
Do, 21.02. 7:00 6
Do, 21.02. 1:00 6
Ortszeit Schneehöhe (cm)
Fr, 22.02. 22:00 0
Fr, 22.02. 21:50 0
Fr, 22.02. 21:40 0
Fr, 22.02. 21:30 0
Fr, 22.02. 21:20 0
Fr, 22.02. 21:10 0
Fr, 22.02. 21:00 0
Fr, 22.02. 20:30 0
Fr, 22.02. 20:00 0
Fr, 22.02. 19:30 0
Fr, 22.02. 19:00 0
Link zu dieser Seite / Seite empfehlen

Das Wetter in ...